This is the latest recevied weather packets stored in our database for station/object W0AVQ. If no packets are shown the sender has not sent any weather packets the latest 10 day(s).
| Time | Temp. | Humidity | Pressure | Rain* | Wind** | Luminosity | Snow |
|---|---|---|---|---|---|---|---|
| 1777759609 | 15° C | 56% | 1020.2 hPa | 0 mm | - | 209 W/m² | - |
| 1777759306 | 15.56° C | 55% | 1019.7 hPa | 0 mm | - | 115 W/m² | - |
| 1777759003 | 16.11° C | 54% | 1020.1 hPa | 0 mm | - | 64 W/m² | - |
| 1777758700 | 16.11° C | 55% | 1020 hPa | 0 mm | - | 62 W/m² | - |
| 1777758397 | 16.11° C | 52% | 1020.1 hPa | 0 mm | - | 64 W/m² | - |
| 1777758095 | 16.11° C | 53% | 1019.8 hPa | 0 mm | - | 70 W/m² | - |
| 1777757791 | 16.11° C | 53% | 1019.9 hPa | 0 mm | - | 78 W/m² | - |
| 1777757488 | 16.11° C | 55% | 1020.1 hPa | 0 mm | - | 85 W/m² | - |
| 1777757188 | 16.11° C | 53% | 1020 hPa | 0 mm | - | 95 W/m² | - |
| 1777756885 | 16.67° C | 55% | 1020 hPa | 0 mm | - | 128 W/m² | - |
| 1777756580 | 16.67° C | 55% | 1019.7 hPa | 0 mm | - | 360 W/m² | - |
| 1777756278 | 17.22° C | 54% | 1019.7 hPa | 0 mm | - | 440 W/m² | - |
| 1777755975 | 17.22° C | 51% | 1019.7 hPa | 0 mm | - | 445 W/m² | - |
| 1777755672 | 16.67° C | 50% | 1019.7 hPa | 0 mm | - | 314 W/m² | - |
| 1777755369 | 17.22° C | 50% | 1019.9 hPa | 0 mm | - | 110 W/m² | - |
| 1777755066 | 16.67° C | 50% | 1019.8 hPa | 0 mm | - | 91 W/m² | - |
| 1777754762 | 16.67° C | 50% | 1019.8 hPa | 0 mm | - | 90 W/m² | - |
| 1777754460 | 16.11° C | 52% | 1019.9 hPa | 0 mm | - | 99 W/m² | - |
| 1777754157 | 16.67° C | 50% | 1019.8 hPa | 0 mm | - | 115 W/m² | - |
| 1777753854 | 16.67° C | 49% | 1019.7 hPa | 0 mm | - | 156 W/m² | - |
| 1777753550 | 16.67° C | 53% | 1019.5 hPa | 0 mm | - | 131 W/m² | - |
| 1777753248 | 17.22° C | 50% | 1019.7 hPa | 0 mm | - | 98 W/m² | - |
| 1777752944 | 17.22° C | 57% | 1019.8 hPa | 0 mm | - | 123 W/m² | - |
| 1777752641 | 16.67° C | 57% | 1019.7 hPa | 0 mm | - | 153 W/m² | - |
| 1777752337 | 16.67° C | 57% | 1019.8 hPa | 0 mm | - | 178 W/m² | - |
* Rain latest hour (hover to see other rain measurements)
** Current wind speed in m/s (hover to see current wind gust speed)